Hourly Data Report for December 12, 2006

TORONTO CITY
ONTARIO

43°40'00.000" N
79°24'00.000" W
112.50 m
6158355
71508
XTO

Download Data

Hourly Data (December 2006)
Hourly Data Report for December 12, 2006
TIME
LST
Temp Definition
°C
Dew Point Definition
°C
Rel Hum Definition
%
Precip. Amount Definition
mm

Wind Dir Definition
10's deg

Wind Spd Definition
km/h
Visibility Definition
km
Stn Press Definition
kPa
Hmdx Definition


Wind Chill Definition


Weather Definition


00:00 5.2 4.5 95   LegendMM LegendMM   101.93     LegendNANA
01:00 5.2 4.7 97   LegendMM LegendMM   101.91     LegendNANA
02:00 5.1 4.7 97   LegendMM LegendMM   101.89     LegendNANA
03:00 4.8 4.4 97   LegendMM LegendMM   101.87     LegendNANA
04:00 4.9 4.6 98   LegendMM LegendMM   101.83     LegendNANA
05:00 5.1 4.8 98   LegendMM LegendMM   101.79     LegendNANA
06:00 5.0 4.7 98   LegendMM LegendMM   101.82     LegendNANA
07:00 4.9 4.6 98   LegendMM LegendMM   101.73     LegendNANA
08:00 5.2 4.8 97   LegendMM LegendMM   101.69     LegendNANA
09:00 5.5 5.1 97   LegendMM LegendMM   101.72     LegendNANA
10:00 6.0 5.3 95   LegendMM LegendMM   101.65     LegendNANA
11:00 5.9 5.1 95   LegendMM LegendMM   101.59     LegendNANA
12:00 6.6 5.2 91   LegendMM LegendMM   101.43     LegendNANA
13:00 6.6 5.2 91   LegendMM LegendMM   101.29     LegendNANA
14:00 6.7 5.0 89   LegendMM LegendMM   101.20     LegendNANA
15:00 7.1 4.9 86   LegendMM LegendMM   101.11     LegendNANA
16:00 7.4 4.9 84   LegendMM LegendMM   101.01     LegendNANA
17:00 7.4 5.1 85   LegendMM LegendMM   100.94     LegendNANA
18:00 7.8 5.3 84   LegendMM LegendMM   100.86     LegendNANA
19:00 8.2 5.3 82   LegendMM LegendMM   100.77     LegendNANA
20:00 8.4 5.2 80   LegendMM LegendMM   100.65     LegendNANA
21:00 9.1 4.8 74   LegendMM LegendMM   100.57     LegendNANA
22:00 9.4 4.5 71   LegendMM LegendMM   100.51     LegendNANA
23:00 8.9 5.1 77   LegendMM LegendMM   100.45     LegendNANA

Notes on Data Quality.

Legend

  • E = Estimated
  • M = Missing
  • NA = Not Available*
  • [empty] = Indicates an unobserved value
Date modified: